Regional Weather Roundup
Issued by NWS

Home | Current Version | Previous Version | Text Only | Print | Product List | Glossary Off
Versions: 1 2 3 4 5 6 7 8 9 10 11 12 13 14 15 16 17 18 19 20 21 22 23 24 25 26 27 28 29 30 31 32 33 34 35 36 37 38 39 40 41 42 43 44 45 46 47 48 49 50

000
ASUS45 KBOU 181907
RWRCO

WEATHER ROUNDUP FOR COLORADO
NATIONAL WEATHER SERVICE DENVER/BOULDER CO
1200 PM MST THU DEC 18 2014

NOTE: "FAIR" INDICATES FEW OR NO CLOUDS BELOW 12000 FEET WITH NO
SIGNIFICANT WEATHER AND/OR OBSTRUCTIONS TO VISIBILITY.

COZ001>005-013-030-031-182000-
...NORTHWEST COLORADO...

CITY           SKY/WX    TMP DP  RH WIND       PRES   REMARKS
CRAIG          LGT SNOW  27  24  89 SW5       30.14F FOG     WCI  22
HAYDEN         CLOUDY    27  21  80 CALM      30.13S
MEEKER         CLOUDY    29  25  85 CALM      30.13F
MOUNT WERNER   NOT AVBL
STEAMBOAT SPGS CLOUDY    28  22  79 CALM      30.11F
WALDEN         SUNNY      9   3  78 CALM      30.08F
$$

COZ006>008-011-182000-
...WEST CENTRAL VALLEYS...

CITY           SKY/WX    TMP DP  RH WIND       PRES   REMARKS
GRAND JUNCTION PTSUNNY   36  33  89 NW7       30.15F
MONTROSE       CLOUDY    36  33  89 NE3       30.14F
EAGLE          NOT AVBL
RIFLE          PTSUNNY   36  32  85 W6        30.13F
DELTA          PTSUNNY   40  35  83 CALM      30.14F
NUCLA          FLURRIES  34  32  93 CALM      30.17F
$$

COZ017>023-064>068-182000-
...SOUTHWEST COLORADO...

CITY           SKY/WX    TMP DP  RH WIND       PRES   REMARKS
DURANGO        CLOUDY    34  27  75 VRB3      30.11F
CORTEZ         CLOUDY    35  32  88 SW7       30.14F WCI  29
PAGOSA SPRINGS CLOUDY    32  22  66 S3        30.10F
TELLURIDE      SUNNY     26  20  76 W5        30.10  WCI  20
WOLF CREEK PAS SNOW      14  14 100 MISG      30.06F VSB 1/4
$$

COZ009-010-012-014-032>034-037-058>063-182000-
...CENTRAL COLORADO...

CITY           SKY/WX    TMP DP  RH WIND       PRES   REMARKS
ASPEN          PTSUNNY   31  23  72 N7        30.07F WCI  24
BUENA VISTA    SUNNY     36  15  42 SE6       30.03F
COPPER MTN     LGT SNOW  19  14  79 W9        30.05S WCI   9
BERTHOUD PASS  CLOUDY    10   5  79 MISG      30.04F
COTTONWOOD PAS SUNNY     32  12  43 W12G18    30.04F WCI  23
GUNNISON       CLOUDY    28  19  69 CALM      30.12F
KREMMLING      CLOUDY    23  18  80 CALM      30.12F
LEADVILLE      PTSUNNY   26  10  50 NW3       30.03F
MONARCH PASS   CLOUDY    14  12  92 MISG      30.15S
SALIDA         SUNNY     40  18  40 SW12      30.11F
SUNLIGHT       CLOUDY   N/A N/A N/A CALM      30.09F FOG
WILKERSON PASS SUNNY     21  12  68 W8        30.05F WCI  12
$$

COZ069>075-182000-
...SAN LUIS VALLEY/SANGRE DE CRISTO MOUNTAINS...

CITY           SKY/WX    TMP DP  RH WIND       PRES   REMARKS
ALAMOSA        CLOUDY    29  22  75 CALM      30.09F
LA VETA PASS   PTSUNNY   23  19  86 SW8       30.03F WCI  14
SAGUACHE       CLOUDY    32  21  64 CALM      30.09F
$$

COZ035-036-038>040-182000-
...NORTHERN COLORADO FRONT RANGE...

CITY           SKY/WX    TMP DP  RH WIND       PRES   REMARKS
DENVER INTL AP PTSUNNY   40  27  59 CALM      30.02F
DMNS CITY PARK   N/A     44  26  48 NE5       30.01F
AURORA         PTSUNNY   40  27  60 VRB2      30.02F
FRONT RANGE AP MOSUNNY   41  30  65 W3        30.03F
ERIE MUNI ARPT   N/A     40  24  53 CALM      30.02F
BOULDER MUN AP MOSUNNY   39  23  52 CALM      30.02F
CENTENNIAL     MOSUNNY   38  25  59 SE5       30.01F
BROOMFIELD     NOT AVBL
FORT COLLINS   SUNNY     41  23  48 NE3       30.04F
LONGMONT       SUNNY     44  25  46 CALM      30.05F
$$

COZ041-046-047-076>085-087-088-182000-
...PIKES PEAK/PALMER DIVIDE AND SOUTHERN FOOTHILLS...

CITY           SKY/WX    TMP DP  RH WIND       PRES   REMARKS
COLO. SPRINGS  MOSUNNY   40  26  57 SE10      30.03F
A. F. ACADEMY  MOSUNNY   37  27  67 SE3       30.02F
ELLICOTT       NOT AVBL
FALCON         NOT AVBL
FORT CARSON    SUNNY     41  30  64 VRB2      30.02F
LIMON          SUNNY     42  23  46 SE10      30.04F
MONUMENT HILL  SUNNY     37  27  65 S6        30.00F
TRINIDAD       SUNNY     42  26  53 VRB6      30.02F
$$

COZ042>045-048>051-090-091-182000-
...NORTHEAST COLORADO...

CITY           SKY/WX    TMP DP  RH WIND       PRES   REMARKS
GREELEY ARPT   SUNNY     37  21  52 NE3       30.03F
AKRON            N/A     28  24  85 W9        30.04F FOG     WCI  19
BURLINGTON     SUNNY     34  28  79 W6        30.05F WCI  29
WRAY           MOSUNNY   26  23  90 W6        30.07F WCI  19
STERLING       PTSUNNY   28  23  80 SW5       30.06S WCI  23
HOLYOKE        NOT AVBL
FORT MORGAN    PTSUNNY   31  22  69 W7        30.06F WCI  24
$$

COZ086-089-092>099-182000-
...SOUTHEAST COLORADO...

CITY           SKY/WX    TMP DP  RH WIND       PRES   REMARKS
PUEBLO         NOT AVBL
LA JUNTA       SUNNY     40  29  64 CALM      30.06F
LAMAR          SUNNY     40  28  62 CALM      30.08F
SPRINGFIELD      N/A     38  29  70 CALM      30.06F
$$



USA.gov is the U.S. government's official web portal to all federal, state and local government web resources and services.